TimeCST,TemperatureF,Dew PointF,Humidity,Sea Level PressureIn,VisibilityMPH,Wind Direction,Wind SpeedMPH,Gust SpeedMPH,PrecipitationIn,Events,Conditions,WindDirDegrees,DateUTC
12:15 AM,14.0,14.0,100,29.66,10.0,WSW,5.8,-,N/A,,Clear,240,2012-12-15 06:15:00
12:35 AM,15.8,15.8,100,29.67,10.0,Calm,Calm,-,N/A,,Clear,0,2012-12-15 06:35:00
12:55 AM,14.0,14.0,100,29.67,10.0,Calm,Calm,-,N/A,,Clear,0,2012-12-15 06:55:00
1:15 AM,8.6,6.8,92,29.67,10.0,West,3.5,-,N/A,,Clear,280,2012-12-15 07:15:00
1:35 AM,6.8,5.0,92,29.68,10.0,Calm,Calm,-,N/A,,Clear,0,2012-12-15 07:35:00
1:55 AM,6.8,5.0,92,29.68,10.0,SSW,10.4,-,N/A,,Clear,200,2012-12-15 07:55:00
2:15 AM,6.8,5.0,92,29.68,10.0,West,4.6,-,N/A,,Clear,260,2012-12-15 08:15:00
2:35 AM,12.2,10.4,92,29.68,10.0,SW,6.9,-,N/A,,Clear,220,2012-12-15 08:35:00
2:55 AM,12.2,12.2,100,29.69,10.0,South,10.4,19.6,N/A,,Partly Cloudy,190,2012-12-15 08:55:00
3:15 AM,14.0,14.0,100,29.69,10.0,SSW,12.7,18.4,N/A,,Mostly Cloudy,200,2012-12-15 09:15:00
3:35 AM,14.0,14.0,100,29.70,10.0,North,-9999.0,-,N/A,,Overcast,0,2012-12-15 09:35:00
3:55 AM,14.0,14.0,100,29.69,10.0,North,-9999.0,-,N/A,,Overcast,0,2012-12-15 09:55:00
4:15 AM,14.0,14.0,100,29.69,10.0,South,18.4,25.3,N/A,,Overcast,190,2012-12-15 10:15:00
4:35 AM,12.2,10.4,92,29.69,10.0,WNW,5.8,19.6,N/A,,Overcast,290,2012-12-15 10:35:00
4:55 AM,12.2,12.2,100,29.68,10.0,West,5.8,-,N/A,,Overcast,260,2012-12-15 10:55:00
5:15 AM,12.2,10.4,92,29.68,10.0,WNW,5.8,-,N/A,,Scattered Clouds,290,2012-12-15 11:15:00
5:35 AM,10.4,10.4,100,29.69,10.0,WSW,5.8,-,N/A,,Clear,250,2012-12-15 11:35:00
5:55 AM,12.2,10.4,92,29.69,10.0,West,5.8,-,N/A,,Mostly Cloudy,280,2012-12-15 11:55:00
6:15 AM,15.8,15.8,100,29.70,10.0,WNW,9.2,-,N/A,,Overcast,290,2012-12-15 12:15:00
6:35 AM,15.8,15.8,100,29.70,10.0,NW,11.5,18.4,N/A,,Overcast,320,2012-12-15 12:35:00
6:55 AM,15.8,15.8,100,29.71,10.0,West,8.1,19.6,N/A,,Overcast,270,2012-12-15 12:55:00
7:15 AM,14.0,14.0,100,29.72,10.0,WNW,3.5,-,N/A,,Mostly Cloudy,300,2012-12-15 13:15:00
7:35 AM,14.0,14.0,100,29.72,10.0,NW,5.8,-,N/A,,Clear,320,2012-12-15 13:35:00
7:55 AM,14.0,14.0,100,29.72,10.0,NW,8.1,-,N/A,,Clear,320,2012-12-15 13:55:00
8:15 AM,14.0,14.0,100,29.72,10.0,NNW,5.8,-,N/A,,Clear,330,2012-12-15 14:15:00
8:35 AM,14.0,14.0,100,29.73,10.0,NW,4.6,-,N/A,,Partly Cloudy,310,2012-12-15 14:35:00
8:55 AM,14.0,14.0,100,29.73,10.0,NW,6.9,-,N/A,,Partly Cloudy,320,2012-12-15 14:55:00
9:15 AM,14.0,14.0,100,29.74,10.0,NW,11.5,16.1,N/A,,Scattered Clouds,320,2012-12-15 15:15:00
9:35 AM,15.8,15.8,100,29.75,0.5,NNW,9.2,-,N/A,Fog,Light Freezing Fog,330,2012-12-15 15:35:00
9:55 AM,17.6,17.6,100,29.74,0.2,NNW,9.2,-,N/A,Fog,Light Freezing Fog,330,2012-12-15 15:55:00
10:15 AM,17.6,17.6,100,29.74,0.2,NNW,8.1,-,N/A,Fog,Light Freezing Fog,330,2012-12-15 16:15:00
10:35 AM,19.4,19.4,100,29.75,3.0,NNW,9.2,-,N/A,,Overcast,330,2012-12-15 16:35:00
10:55 AM,21.2,21.2,100,29.76,10.0,NW,10.4,-,N/A,,Overcast,320,2012-12-15 16:55:00
11:15 AM,23.0,23.0,100,29.76,9.0,NNW,8.1,-,N/A,,Overcast,330,2012-12-15 17:15:00
11:35 AM,23.0,23.0,100,29.76,3.0,NNW,9.2,-,N/A,,Overcast,330,2012-12-15 17:35:00
11:55 AM,24.8,24.8,100,29.76,3.0,NNW,8.1,-,N/A,,Overcast,330,2012-12-15 17:55:00
12:15 PM,24.8,24.8,100,29.75,1.2,NNW,9.2,-,N/A,,Overcast,330,2012-12-15 18:15:00
12:35 PM,24.8,24.8,100,29.75,2.5,NNW,10.4,17.3,N/A,,Overcast,330,2012-12-15 18:35:00
12:55 PM,24.8,24.8,100,29.74,8.0,NNW,9.2,-,N/A,,Overcast,330,2012-12-15 18:55:00
1:15 PM,24.8,24.8,100,29.74,10.0,NW,11.5,17.3,N/A,,Overcast,310,2012-12-15 19:15:00
1:35 PM,24.8,24.8,100,29.73,10.0,NW,10.4,-,N/A,,Overcast,320,2012-12-15 19:35:00
1:55 PM,24.8,24.8,100,29.73,10.0,NW,10.4,18.4,N/A,,Overcast,320,2012-12-15 19:55:00
2:15 PM,24.8,24.8,100,29.74,10.0,NW,10.4,16.1,N/A,,Overcast,320,2012-12-15 20:15:00
2:35 PM,24.8,24.8,100,29.73,10.0,NW,8.1,-,N/A,,Overcast,320,2012-12-15 20:35:00
2:55 PM,24.8,24.8,100,29.74,10.0,NW,11.5,-,N/A,,Overcast,310,2012-12-15 20:55:00
3:15 PM,24.8,24.8,100,29.74,10.0,NW,9.2,-,N/A,,Overcast,310,2012-12-15 21:15:00
3:35 PM,24.8,24.8,100,29.75,10.0,NNW,9.2,-,N/A,,Overcast,330,2012-12-15 21:35:00
3:55 PM,24.8,24.8,100,29.75,10.0,NNW,12.7,-,N/A,,Overcast,330,2012-12-15 21:55:00
4:15 PM,24.8,24.8,100,29.75,10.0,NW,12.7,-,N/A,,Overcast,320,2012-12-15 22:15:00
4:35 PM,24.8,24.8,100,29.75,10.0,NW,8.1,17.3,N/A,,Overcast,310,2012-12-15 22:35:00
4:55 PM,23.0,23.0,100,29.76,10.0,NNW,8.1,-,N/A,,Overcast,330,2012-12-15 22:55:00
5:15 PM,23.0,23.0,100,29.76,10.0,NNW,6.9,-,N/A,,Overcast,330,2012-12-15 23:15:00
5:35 PM,23.0,23.0,100,29.76,10.0,NW,9.2,-,N/A,,Overcast,320,2012-12-15 23:35:00
5:55 PM,23.0,23.0,100,29.76,10.0,NW,9.2,-,N/A,,Overcast,320,2012-12-15 23:55:00
6:15 PM,23.0,23.0,100,29.77,10.0,NW,3.5,-,N/A,,Overcast,310,2012-12-16 00:15:00
6:35 PM,23.0,23.0,100,29.77,10.0,NW,6.9,-,N/A,,Overcast,320,2012-12-16 00:35:00
6:55 PM,23.0,23.0,100,29.77,10.0,NW,5.8,-,N/A,,Overcast,310,2012-12-16 00:55:00
7:15 PM,21.2,21.2,100,29.76,10.0,NW,6.9,-,N/A,,Overcast,320,2012-12-16 01:15:00
7:35 PM,19.4,19.4,100,29.76,10.0,Calm,Calm,-,N/A,,Overcast,0,2012-12-16 01:35:00
7:55 PM,19.4,19.4,100,29.77,10.0,WNW,4.6,-,N/A,,Overcast,290,2012-12-16 01:55:00
8:15 PM,19.4,19.4,100,29.77,10.0,NW,6.9,-,N/A,,Overcast,310,2012-12-16 02:15:00
8:35 PM,17.6,17.6,100,29.77,10.0,West,4.6,-,N/A,,Overcast,260,2012-12-16 02:35:00
8:55 PM,19.4,19.4,100,29.77,5.0,West,6.9,-,N/A,,Overcast,270,2012-12-16 02:55:00
9:15 PM,19.4,19.4,100,29.77,1.0,West,6.9,-,N/A,,Overcast,280,2012-12-16 03:15:00
9:35 PM,17.6,17.6,100,29.77,0.5,West,5.8,-,N/A,Fog,Light Freezing Fog,270,2012-12-16 03:35:00
9:55 PM,17.6,17.6,100,29.77,0.5,West,4.6,-,N/A,Fog,Light Freezing Fog,280,2012-12-16 03:55:00
10:15 PM,17.6,17.6,100,29.77,0.5,WNW,4.6,-,N/A,Fog,Light Freezing Fog,300,2012-12-16 04:15:00
10:35 PM,17.6,17.6,100,29.77,0.5,West,6.9,-,N/A,Fog,Light Freezing Fog,260,2012-12-16 04:35:00
10:55 PM,17.6,17.6,100,29.77,0.2,West,5.8,-,N/A,Fog,Light Freezing Fog,260,2012-12-16 04:55:00
11:15 PM,17.6,17.6,100,29.77,0.2,WNW,5.8,-,N/A,Fog,Light Freezing Fog,290,2012-12-16 05:15:00
11:35 PM,17.6,17.6,100,29.77,0.2,West,3.5,-,N/A,Fog,Light Freezing Fog,260,2012-12-16 05:35:00
11:55 PM,17.6,17.6,100,29.77,0.2,NW,4.6,-,N/A,Fog,Light Freezing Fog,310,2012-12-16 05:55:00